Пылтсамаа

Эстония     58°39′10″N   25°58′34″E
темп.,
°C
ветер,
м/с
пор.,
м/с
влажн.,
%
обл.,
%
осадки,
мм/ч
давл.,
гПа
погр.,
м
13 апреля, вт
вт1300:00+8зюз1285100 0.0 101831
03:00+9юз2690100 0.0 1017307
06:00+7з2491100 0.1 1018319
09:00+5зсз3689100 0.3 1020486
12:00+5з2581100 0.0 1021475
15:00+8юз0267100 0.1 1021695
18:00+7зсз2365100 0.1 1021998
21:00+4ююв1180100 0.7 102160
14 апреля, ср
ср1400:00+3ююз2481100 0.0 1021147
03:00+3з138372 0.0 102079
06:00+1сз228480 0.0 102055
09:00+4ссз246975 0.0 1021390
12:00+8ссз34545 0.0 10221256
15:00+10с334388 0.0 10221834
18:00+9с434760 0.0 10221531
21:00+4ссв386994 0.0 1024224
15 апреля, чт
чт1500:00+2с2878100 0.0 1025220
03:00+2ссв31074100 0.0 1026303
06:00+1ссв3117762 0.0 1027317
09:00+4св496339 0.0 1028706
12:00+7св584554 0.0 10281157
15:00+8св69385 0.0 10281213
18:00+7ссв594824 0.0 1028977
21:00+3ссв413605 0.0 1028573
16 апреля, пт
пт1600:00+2св412623 0.0 1028456
03:00+1св413680 0.0 1028413
06:00+1св4137136 0.0 1028391
09:00+5св5136268 0.0 1028642
12:00+9всв594173 0.0 1028997
15:00+11всв583435 0.0 10271384
18:00+10св594889 0.0 1027978
21:00+6св4125976 0.0 1028435
17 апреля, сб
сб1700:00+4св4126855 0.0 1029376
03:00+3св4127194 0.0 1029322
06:00+3св4127316 0.0 1030349
09:00+6всв4115931 0.0 1030519
12:00+11в58465 0.0 1030923
15:00+13в5843100 0.0 10301159
18:00+13всв484655 0.0 10291155
21:00+7св386955 0.0 1030180